Regional Weather Roundup
Issued by NWS

Home | Current Version | Previous Version | Text Only | Print | Product List | Glossary On
Versions: 1 2 3 4 5 6 7 8 9 10 11 12 13 14 15 16 17 18 19 20 21 22 23 24 25 26 27 28 29 30 31 32 33 34 35 36 37 38 39 40 41 42 43 44 45 46 47 48 49 50
000
ASUS43 KDMX 231206
RWRIA

WEATHER ROUNDUP FOR IOWA
NATIONAL WEATHER SERVICE DES MOINES IA
600 AM CST MON JAN 23 2017

NOTE: "FAIR" INDICATES FEW OR NO CLOUDS BELOW 12,000 FEET WITH NO
SIGNIFICANT WEATHER AND/OR OBSTRUCTIONS TO VISIBILITY.

* - THESE STATIONS ARE NOT NWS STATIONS...THUS NOT UNDER NWS
QUALITY CONTROL.  THEY ALSO DO NOT REPORT WEATHER SUCH
AS PRECIPITATION OR FOG.

IAZ001>003-012>014-020>022-031>034-043>046-231300-
   NORTHWEST IOWA

CITY           SKY/WX    TMP DP  RH WIND       PRES   REMARKS
CARROLL *      CLOUDY    32  32 100 NW14      29.85F WCI  22
CHEROKEE *     CLOUDY    32  30  91 N7        29.85F WCI  26
DENISON *      CLOUDY    32  28  86 N8        29.84F WCI  25
LE MARS *      CLOUDY    32  28  86 N5        29.86F WCI  27
ORANGE CITY *  CLOUDY    30  28  93 N6        29.84F WCI  24
SHELDON *      CLOUDY    32  32 100 NW7       29.82F WCI  26
SIOUX CITY     CLOUDY    33  28  81 NW5       29.87F WCI  29
6HR MIN TEMP:  33; 6HR MAX TEMP:  34;

SPENCER          N/A    N/A N/A N/A MISG      29.84S
STORM LAKE *   CLOUDY    32  28  86 N8        29.84F WCI  25
$$

IAZ055>058-069>071-079>083-090>094-231300-
   SOUTHWEST IOWA

CITY           SKY/WX    TMP DP  RH WIND       PRES   REMARKS
ATLANTIC *     CLOUDY    32  28  86 N9        29.86F WCI  24
AUDUBON *      CLOUDY    30  27  86 NW8       29.86F WCI  23
CLARINDA *     CLOUDY    32  32 100 N13       29.90F WCI  22
COUNCIL BLFS * CLOUDY    30  30 100 N5        29.87F WCI  25
CRESTON *      CLOUDY    30  30 100 NW10      29.87S WCI  21
HARLAN  *      CLOUDY    32  32 100 N10       29.89F WCI  24
LAMONI         CLOUDY    32  28  85 NW10      29.85S WCI  24
6HR MIN TEMP:  31; 6HR MAX TEMP:  36;

RED OAK *      CLOUDY    32  28  86 N8G14     29.89S WCI  25
SHENANDOAH *   CLOUDY    32  28  86 N8        29.90F WCI  25
$$

IAZ047>049-059>061-072>074-084-231300-
   CENTRAL IOWA

CITY           SKY/WX    TMP DP  RH WIND       PRES   REMARKS
AMES           CLOUDY    32  31  96 NW12      29.86R WCI  23
6HR MIN TEMP:  32; 6HR MAX TEMP:  35;

ANKENY *       CLOUDY    32  30  93 NW9G15    29.87S WCI  24
BOONE *        CLOUDY    32  32 100 NW10      29.84R WCI  24
CHARITON *     CLOUDY    30  30 100 NW8G17    29.85S FOG     WCI  23
DES MOINES     DRIZZLE   33  30  88 NW9       29.86S FOG     WCI  25
6HR MIN TEMP:  32; 6HR MAX TEMP:  35; 6HR PCP: TRACE;

GRINNELL*      CLOUDY    32  32 100 NW9       29.83F FOG     WCI  24
KNOXVILLE *    CLOUDY    32  30  93 W12       29.84R FOG     WCI  23
MARSHALLTOWN   CLOUDY    32  32 100 NW9       29.82F WCI  24
6HR MIN TEMP:  32; 6HR MAX TEMP:  36;

NEWTON *       CLOUDY    32  32 100 NW8       29.83S FOG     WCI  25
PELLA *        CLOUDY    32  31  98 NW9       29.86R FOG     WCI  24
PERRY *        CLOUDY    32  31  96 NW8       29.86F WCI  25
$$

IAZ004>006-015-016-023>025-035-036-231300-
   NORTH CENTRAL IOWA

CITY           SKY/WX    TMP DP  RH WIND       PRES   REMARKS
ALGONA *       CLOUDY    32  30  93 NW9       29.84R WCI  24
CLARION *      CLOUDY    32  32 100 NW8       29.84S WCI  25
ESTHERVILLE    CLOUDY    32  29  88 NW10      29.83R WCI  24
6HR MIN TEMP:  30; 6HR MAX TEMP:  32;

FORT DODGE *   CLOUDY    32  28  86 NW6       29.85S WCI  26
MASON CITY     CLOUDY    31  29  92 NW9       29.82F WCI  23
6HR MIN TEMP:  31; 6HR MAX TEMP:  32;

FOREST CITY *  CLOUDY    32  32 100 NW10      29.82F WCI  24
WEBSTER CITY * CLOUDY    32 N/A N/A NW12      29.84R WCI  23
IOWA FALLS *   CLOUDY    33  31  94 NW8       29.83F WCI  25
$$

IAZ007>011-017>019-026>030-037>042-050>054-066-231300-
   NORTHEAST IOWA

CITY           SKY/WX    TMP DP  RH WIND       PRES   REMARKS
CEDAR RAPIDS   CLOUDY    34  33  96 NW9       29.80R FOG     WCI  27
6HR MIN TEMP:  34; 6HR MAX TEMP:  35;

CHARLES CITY * CLOUDY    32  32 100 NW12      29.82S FOG     WCI  23
CLINTON *      CLOUDY    35  34  96 NW7       29.78S FOG     WCI  29
DECORAH *      CLOUDY    32  32 100 W3        29.78S
DUBUQUE        CLOUDY    35  34  96 N9        29.77S FOG     WCI  28
6HR MIN TEMP:  35; 6HR MAX TEMP:  35;

MONTICELLO *   CLOUDY    36  34  93 NW7       29.79S WCI  30
OELWEIN *      CLOUDY    32  32 100 NW10      29.81R FOG     WCI  24
WATERLOO       LGT SNOW  32  31  96 NW8       29.82S FOG     WCI  25
6HR MIN TEMP:  32; 6HR MAX TEMP:  35; 6HR PCP: TRACE;

$$

IAZ064-065-067-068-078-231300-
   EAST CENTRAL IOWA

CITY           SKY/WX    TMP DP  RH WIND       PRES   REMARKS
DAVENPORT      CLOUDY    35  33  92 NW9       29.78S WCI  28
6HR MIN TEMP:  35; 6HR MAX TEMP:  36;

IOWA CITY      CLOUDY    37  34  89 NW10      29.83R WCI  30
6HR MIN TEMP:  37; 6HR MAX TEMP:  38;

MUSCATINE *    CLOUDY    37  34  87 NW7G15    29.82R WCI  32
QUAD CITIES    CLOUDY    37  33  85 NW8       29.78S WCI  31
6HR MIN TEMP:  37; 6HR MAX TEMP:  38;

$$

IAZ062-063-075>077-085>089-095>099-231300-
   SOUTHEAST IOWA

CITY           SKY/WX    TMP DP  RH WIND       PRES   REMARKS
BURLINGTON     CLOUDY    37  35  92 NW8       29.80R WCI  31
6HR MIN TEMP:  37; 6HR MAX TEMP:  37;

FAIRFIELD *    CLOUDY    36  36 100 N10       29.81F WCI  28
FORT MADISON * CLOUDY    37  36  93 NW9       29.82R WCI  31
KEOKUK *       CLOUDY    37 N/A N/A NW7       29.82R WCI  32
OSKALOOSA *    CLOUDY    32  32  99 NW12      29.84S FOG     WCI  23
CENTERVILLE *  CLOUDY    32  32 100 W5        29.86R FOG     WCI  27
OTTUMWA        CLOUDY    35  32  88 NW13      29.83R FOG     WCI  26
6HR MIN TEMP:  35; 6HR MAX TEMP:  38;

WASHINGTON *   CLOUDY    36  36 100 NW9G15    29.83R WCI  29
$$

ABBREVIATIONS USED IN REMARKS
   TC - TEMPERATURES IN CELSIUS
  WCI - WIND CHILL INDEX
   HX - HEAT INDEX
  VSB - VISIBILITY
$$




USA.gov is the U.S. government's official web portal to all federal, state and local government web resources and services.